Location: Newark
(49.1022°N, 20.8503°E)
Time: 07:55:23
(UTC+00:00)

Envisat - Pass Details

Date: 29 September 2020
Orbit: 764 x 766 km, 98.1° (Epoch: 21 October)

Event Time Altitude Azimuth Distance (km) Brightness Sun altitude
Rises 17:17:42 0° 218° (SW) 3,223 6.7 -10.4°
Reaches altitude 10° 17:21:13 10° 244° (WSW) 2,303 6.4 -11.0°
Maximum altitude 17:23:45 14° 274° (W) 2,057 6.6 -11.4°
Drops below altitude 10° 17:26:17 10° 304° (NW) 2,311 6.6 -11.8°
Sets 17:29:51 0° 330° (NNW) 3,244 6.9 -12.4°
